This demonstration page uses our WeatherBlox Daily Observations layout. Learn more.

Left ArrowRight Arrow

39.51506, -84.39828

Hourly Observations for March 5, 2015

Temp ( °F °C ) Dew Point ( °F °C ) Humidity (%) Winds ( mph kmh ) Pressure ( in mb ) Visibility ( mi km ) Precip ( " mm )
12:15 am 00:15 Cloudy 24 -4.2 12 -10.9 60 60 N 10 17 30.27 1025 10 16 N/A
12:35 am 00:35 Cloudy 24 -4.2 13 -10.6 61 61 N 10 17 30.30 1026 10 16 N/A
12:55 am 00:55 Cloudy 24 -4.2 11 -11.9 55 55 NNE 13 20 30.27 1025 10 16 N/A
1:15 am 01:15 Cloudy 23 -4.8 10 -12.4 56 56 N 13 20 30.33 1027 10 16 N/A
1:35 am 01:35 Cloudy 23 -5.1 7 -13.9 50 50 NNE 13 20 30.33 1027 10 16 N/A
1:55 am 01:55 Cloudy 22 -5.3 7 -14 51 51 NNE 13 20 30.33 1027 10 16 N/A
2:15 am 02:15 Cloudy 22 -5.6 4 -15.6 46 46 N 15 24 30.33 1027 10 16 N/A
2:35 am 02:35 Cloudy 22 -5.6 4 -15.6 46 46 N 13 20 30.33 1027 10 16 N/A
2:55 am 02:55 Cloudy 22 -5.6 5 -15 48 48 N 12 19 30.33 1027 10 16 N/A
3:15 am 03:15 Cloudy 22 -5.6 6 -14.7 49 49 N 8 13 30.36 1028 10 16 N/A
3:35 am 03:35 Cloudy 22 -5.6 7 -14.1 52 52 NNE 12 19 30.33 1027 10 16 N/A
3:55 am 03:55 Cloudy 22 -5.6 5 -14.9 48 48 NNE 12 19 30.36 1028 10 16 N/A
4:15 am 04:15 Cloudy 22 -5.7 4 -15.3 47 47 NNE 16 26 30.33 1027 10 16 N/A
4:35 am 04:35 Cloudy 21 -6 4 -15.6 47 47 NNE 9 15 30.33 1027 10 16 N/A
4:55 am 04:55 Cloudy 21 -6 5 -15.2 49 49 N 13 20 30.33 1027 10 16 N/A
5:15 am 05:15 Cloudy 21 -6.1 5 -15.1 49 49 N 10 17 30.36 1028 10 16 N/A
5:35 am 05:35 Cloudy 21 -6.1 5 -15 50 50 NNE 8 13 30.36 1028 10 16 N/A
5:55 am 05:55 Cloudy N/A N/A N/A NNE 9 15 N/A 10 16 N/A
6:15 am 06:15 Cloudy 21 -6.1 6 -14.5 52 52 NNE 9 15 N/A 10 16 N/A
6:35 am 06:35 Cloudy 21 -6 5 -14.9 50 50 NNE 6 9 30.39 1029 10 16 N/A
6:55 am 06:55 Cloudy 21 -6.1 6 -14.4 52 52 NNE 8 13 30.39 1029 10 16 N/A
7:15 am 07:15 Cloudy 21 -6.3 5 -15.2 50 50 NNE 10 17 30.39 1029 10 16 N/A
7:35 am 07:35 Mostly Cloudy 21 -6.3 5 -15 51 51 NNE 10 17 30.39 1029 10 16 N/A
7:55 am 07:55 Partly Cloudy 21 -6.3 5 -15.2 50 50 NNE 9 15 30.39 1029 10 16 N/A
8:15 am 08:15 Mostly Cloudy 21 -6.3 4 -15.7 48 48 NNE 12 19 30.39 1029 10 16 N/A
8:35 am 08:35 Cloudy 20 -6.6 3 -16.3 46 46 NE 10 17 30.42 1030 10 16 N/A
8:55 am 08:55 Cloudy 20 -6.4 3 -15.9 47 47 N 9 15 30.45 1031 10 16 N/A
9:15 am 09:15 Cloudy 21 -6.3 2 -16.8 44 44 NNE 6 9 30.48 1032 10 16 N/A
9:35 am 09:35 Cloudy 21 -6.3 1 -17.4 41 41 N 8 13 30.45 1031 10 16 N/A
9:55 am 09:55 Cloudy 21 -6.3 N/A 40 40 N 8 13 30.42 1030 10 16 N/A
10:15 am 10:15 Cloudy 21 -6.3 N/A 40 40 N 6 9 30.45 1031 10 16 N/A
10:35 am 10:35 Cloudy 21 -6.3 -1 -18.1 39 39 N 7 11 30.45 1031 10 16 N/A
10:55 am 10:55 Cloudy 21 -6.1 -1 -18.2 38 38 N 10 17 30.45 1031 10 16 N/A
12:15 pm 12:15 Partly Cloudy 24 -4.2 1 -17.1 36 36 NNE 8 13 30.45 1031 10 16 N/A
12:35 pm 12:35 Cloudy 24 -4.2 2 -16.4 38 38 N 12 19 30.45 1031 10 16 N/A
12:55 pm 12:55 Cloudy 24 -4.2 1 -17 37 37 N 10 17 30.48 1032 10 16 N/A
1:35 pm 13:35 Cloudy 24 -4.2 1 -17.5 35 35 N 9 15 30.48 1032 10 16 N/A
1:55 pm 13:55 Mostly Cloudy 25 -4.1 1 -17.5 35 35 N 12 19 30.48 1032 10 16 N/A
2:15 pm 14:15 Partly Cloudy 24 -4.2 1 -17.1 36 36 NW 7 11 30.48 1032 10 16 N/A
2:35 pm 14:35 Sunny 25 -3.9 2 -16.9 36 36 N 5 7 30.48 1032 10 16 N/A
2:55 pm 14:55 Sunny 24 -4.2 1 -17.1 36 36 N 13 20 30.48 1032 10 16 N/A
3:15 pm 15:15 Sunny 24 -4.2 N/A 34 34 N 13 20 30.48 1032 10 16 N/A
3:35 pm 15:35 Sunny 24 -4.2 1 -17.4 35 35 N 12 19 30.48 1032 10 16 N/A
3:55 pm 15:55 Sunny 24 -4.5 2 -16.9 38 38 NNW 12 19 30.50 1033 10 16 N/A
4:15 pm 16:15 Sunny 24 -4.2 N/A 35 35 N 10 17 30.50 1033 10 16 N/A
4:35 pm 16:35 Sunny 24 -4.2 2 -16.5 38 38 N 14 22 30.50 1033 10 16 N/A
4:55 pm 16:55 Sunny 24 -4.2 1 -17.3 36 36 NNW 10 17 30.53 1034 10 16 N/A
5:15 pm 17:15 Sunny 23 -5 N/A 36 36 N 10 17 30.53 1034 10 16 N/A
5:35 pm 17:35 Sunny N/A N/A N/A NW 8 13 N/A 10 16 N/A
5:55 pm 17:55 Sunny 23 -5.2 N/A 37 37 NNW 7 11 30.56 1035 10 16 N/A
6:15 pm 18:15 Partly Cloudy 22 -5.6 1 -17.1 40 40 N 8 13 30.56 1035 10 16 N/A
6:35 pm 18:35 Partly Cloudy 21 -5.9 1 -17 42 42 N 7 11 30.56 1035 10 16 N/A
6:55 pm 18:55 Clear 21 -6.3 1 -17 43 43 N 5 7 30.59 1036 10 16 N/A
7:15 pm 19:15 Clear 20 -6.6 1 -17.1 43 43 N 5 7 30.59 1036 10 16 N/A
7:35 pm 19:35 Clear 19 -7 2 -16.8 46 46 N N/A 30.59 1036 10 16 N/A
7:55 pm 19:55 Clear 19 -7 3 -15.9 49 49 N N/A 30.59 1036 10 16 N/A
8:15 pm 20:15 Clear 17 -8.2 6 -14.4 61 61 N N/A 30.59 1036 10 16 N/A
8:35 pm 20:35 Clear 16 -9 7 -13.7 69 69 N N/A 30.59 1036 10 16 N/A
8:55 pm 20:55 Clear 14 -9.8 6 -14.5 69 69 N N/A 30.62 1037 10 16 N/A
9:15 pm 21:15 Clear 14 -9.8 7 -13.9 72 72 N N/A 30.62 1037 10 16 N/A
9:35 pm 21:35 Clear 14 -9.8 8 -13.5 75 75 N N/A 30.62 1037 10 16 N/A
9:55 pm 21:55 Clear 14 -9.9 7 -14 72 72 N 3 6 30.62 1037 10 16 N/A
10:15 pm 22:15 Clear 12 -11.2 5 -15.1 73 73 NNE 5 7 30.62 1037 10 16 N/A
10:35 pm 22:35 Clear 12 -11.2 5 -15 74 74 N 3 6 30.62 1037 10 16 N/A
10:55 pm 22:55 Clear 10 -12 4 -15.5 75 75 N N/A 30.62 1037 10 16 N/A
11:15 pm 23:15 Clear 10 -12.2 4 -15.6 76 76 N N/A 30.62 1037 10 16 N/A
11:35 pm 23:35 Clear 9 -12.6 3 -16 76 76 N N/A 30.65 1038 10 16 N/A
11:55 pm 23:55 Clear 9 -12.6 4 -15.6 79 79 N N/A 30.65 1038 10 16 N/A

Powered by AerisWeather